Regional Weather Roundup
Issued by NWS

Home | Current Version | Previous Version | Text Only | Print | Product List | Glossary On
Versions: 1 2 3 4 5 6 7 8 9 10 11 12 13 14 15 16 17 18 19 20 21 22 23 24 25 26 27 28 29 30 31 32 33 34 35 36 37 38 39 40 41 42 43 44 45 46 47 48 49 50
000
ASUS44 KLIX 221810
RWRLA
LOUISIANA WEATHER ROUNDUP
NATIONAL WEATHER SERVICE NEW ORLEANS LA
100 PM CDT MON SEP 22 2014

NOTE: "FAIR" INDICATES FEW OR NO CLOUDS BELOW 12,000 FEET WITH NO
      SIGNIFICANT WEATHER AND/OR OBSTRUCTIONS TO VISIBILITY.
      SKY/WX - SKY CONDITION AND SIGNIFICANT WEATHER.
      TMP - AIR TEMPERATURE.    DP   - DEWPOINT TEMPERATURE.
      RH  - RELATIVE HUMIDITY.  PRES - PRESSURE.
      HX  - HEAT INDEX.         WCI  - WIND CHILL INDEX.

*  THESE STATIONS ARE NOT NWS OR FAA STATIONS AND ARE NOT UNDER
   NWS QUALITY CONTROL.

LAZ040-048-061>063-065-066-069-221900-
SOUTHEAST LOUISIANA

CITY           SKY/WX    TMP DP  RH WIND       PRES   REMARKS
N.O. AUDUBON   NOT AVBL
N.O. INTL ARPT MOSUNNY   89  68  49 N8        30.02F
6HR MIN TEMP:  73; 6HR MAX TEMP:  89;

N.O. LAKEFRONT SUNNY     86  70  58 NW5       30.03F
6HR MIN TEMP:  79; 6HR MAX TEMP:  87;

N.O. DOWNTOWN* FAIR      88  64  45 N7        30.03F
6HR MIN TEMP:  79; 6HR MAX TEMP:  90;

SLIDELL        SUNNY     89  72  56 N10       30.02F HX  96
6HR MIN TEMP:  66; 6HR MAX TEMP:  90;

BATON ROUGE    MOSUNNY   87  71  58 NE13      30.05S
6HR MIN TEMP:  68; 6HR MAX TEMP:  87;

BOOTHVILLE     SUNNY     85  74  69 N8        30.01F
6HR MIN TEMP:  80; 6HR MAX TEMP:  86;

BELLE CHASSE   MOSUNNY   90  63  40 VRB7      30.01F
6HR MIN TEMP:  69; 6HR MAX TEMP:  90;

BOGALUSA*        N/A     86  71  59 N9        30.06F
6HR MIN TEMP:  65; 6HR MAX TEMP:  87;

GALLIANO*      NOT AVBL
NEW ROADS*     MOCLDY    85  70  62 N10       30.06F
6HR MIN TEMP:  68; 6HR MAX TEMP:  85;

GONZALES*      FAIR      88  73  60 NW7       30.03F
6HR MIN TEMP:  67; 6HR MAX TEMP:  88;

HAMMOND*       MOSUNNY   88  70  55 N8        30.05F
HOUMA*         SUNNY     90  32  12 N8        30.02F
PORT FOURCHON* CLEAR     86  72  62 NE13      30.04F

$$

LAZ041-044-053-054-221900-
SOUTHWEST LOUISIANA

CITY           SKY/WX    TMP DP  RH WIND       PRES   REMARKS
LAKE CHARLES   SUNNY     88  72  58 N8        30.05F
6HR MIN TEMP:  71; 6HR MAX TEMP:  88;

LAFAYETTE      MOSUNNY   88  73  61 N8G17     30.05S HX  95
6HR MIN TEMP:  71; 6HR MAX TEMP:  89;

PATTERSON      SUNNY     90  72  55 N7          N/A  HX  96
6HR MIN TEMP:  68; 6HR MAX TEMP:  90;

SALT POINT       N/A     91  69  48 VRB5      30.02F HX  96
6HR MIN TEMP:  74; 6HR MAX TEMP:  92;

NEW IBERIA     SUNNY     90  74  59 NE8       30.04F HX  99
6HR MIN TEMP:  70; 6HR MAX TEMP:  90;

CHENAULT AIRPK PTSUNNY   84  73  70 N8        30.06F

$$

LAZ027-028-221900-
CENTRAL LOUISIANA

CITY           SKY/WX    TMP DP  RH WIND       PRES   REMARKS
FORT POLK      PTSUNNY   80  60  50 NE9       30.11F
6HR MIN TEMP:  72; 6HR MAX TEMP:  81;

ALEXANDRIA INT MOSUNNY   83  61  47 NE9       30.09F
6HR MIN TEMP:  72; 6HR MAX TEMP:  83;

ALEXANDRIA     SUNNY     85  60  42 VRB7      30.11F
6HR MIN TEMP:  73; 6HR MAX TEMP:  85;


$$

LAZ001-002-221900-
NORTHWEST LOUISIANA

CITY           SKY/WX    TMP DP  RH WIND       PRES   REMARKS
SHREVEPORT     SUNNY     84  53  34 E9        30.15F
6HR MIN TEMP:  71; 6HR MAX TEMP:  84;

BARKSDALE AFB  SUNNY     84  52  32 E8        30.16F
6HR MIN TEMP:  69; 6HR MAX TEMP:  84;

DTN SHREVEPORT SUNNY     82  53  36 E8        30.16F
6HR MIN TEMP:  69; 6HR MAX TEMP:  82;


$$

LAZ014-016-221900-
NORTHEAST LOUISIANA

CITY           SKY/WX    TMP DP  RH WIND       PRES   REMARKS
MONROE         SUNNY     83  53  35 N17G23    30.14F
6HR MIN TEMP:  68; 6HR MAX TEMP:  83;

TALLULAH       SUNNY     84  51  31 NE15      30.12F
6HR MIN TEMP:  70; 6HR MAX TEMP:  84;


$$



USA.gov is the U.S. government's official web portal to all federal, state and local government web resources and services.